Powrót do katalogu

SCOUT G-1 DEB

AktywnyPO
NORAD 18365·DEBRIS·🇺🇸 United States

Wystrzelony Sep 16, 1987 z Vandenberg Space Force Base

Loading…

Następne Przeloty (najbliższe 24 godziny)

TLE

ŚwieżeSource: Space-Track

Epoka: Sep 14, 2026, 11:32 UTC

1 18365U 87080E   26257.48084311  .00000289  00000-0  40276-3 0  9998
2 18365  90.3509  72.7712 0106660 148.0321 240.1901 13.53431370919663

Śledź SCOUT G-1 DEB w czasie rzeczywistym z AllMySat

Download on the App Store